N1UNH Weather Reports


time (UTC)temp
C
wind
direction
speed
KPH
gust
KPH
rain 1hr
cm
rain 24hr
cm
rain mn
cm
humidity
%
barometer
mb
20260507021028 12 203 1.6 1.6 0.00 0.71 0.71 94 1011.5
20260507020525 12 203 1.6 1.6 0.00 0.71 0.71 94 1011.6
20260507020022 12 203 1.6 1.6 0.00 0.71 0.71 94 1011.4
20260507015520 12 203 1.6 1.6 0.18 0.71 0.71 94 1011.3
20260507015017 12 203 0.0 0.0 0.30 0.71 0.71 94 1011.2
20260507014514 12 203 0.0 0.0 0.30 0.69 0.69 94 1011.2
20260507014010 12 203 0.0 0.0 0.48 0.66 0.66 94 1010.9
20260507013506 13 203 0.0 0.0 0.61 0.64 0.64 94 1011.1
20260507013004 13 203 1.6 1.6 0.30 0.58 0.58 94 1011.3
20260507012501 13 203 0.0 0.0 0.18 0.53 0.53 94 1011.3
20260507011957 13 203 0.0 0.0 0.48 0.53 0.53 94 1011.0
20260507011454 13 203 0.0 0.0 0.61 0.51 0.51 95 1011.0
20260507010950 15 203 1.6 1.6 0.30 0.46 0.46 95 1010.8
20260507010444 15 203 0.0 0.0 0.00 0.41 0.41 95 1010.5
20260507005942 15 203 0.0 0.0 0.00 0.41 0.41 95 1010.3
20260507005439 15 203 0.0 0.0 0.00 0.41 0.41 95 1010.4
20260507004935 15 203 0.0 0.0 0.00 0.41 0.41 95 1010.3
20260507004432 15 203 1.6 0.0 0.00 0.41 0.41 95 1010.5
20260507003930 15 203 0.0 0.0 0.00 0.41 0.41 95 1010.4
20260507003424 15 203 1.6 1.6 0.00 0.41 0.41 95 1010.3
20260507002920 15 203 1.6 1.6 0.00 0.41 0.41 95 1010.2
20260507002416 15 203 0.0 0.0 0.00 0.41 0.41 95 1010.2
20260507001914 15 203 0.0 0.0 0.00 0.41 0.41 95 1010.2
20260507001410 15 203 0.0 0.0 0.00 0.41 0.41 95 1010.3
20260507000908 15 203 0.0 0.0 0.00 0.41 0.41 95 1010.1
20260507000405 15 203 0.0 0.0 0.00 0.41 0.41 95 1010.0
20260506235859 15 203 0.0 0.0 0.00 0.41 0.41 95 1010.2
20260506235356 15 203 0.0 0.0 0.00 0.41 0.41 95 1010.2
20260506234852 15 203 0.0 0.0 0.00 0.41 0.41 95 1009.8
20260506234350 15 203 0.0 0.0 0.00 0.41 0.41 95 1009.8
20260506233847 15 203 0.0 1.6 0.00 0.41 0.41 95 1010.0
20260506233343 15 203 0.0 0.0 0.00 0.41 0.41 95 1009.8
20260506232841 15 203 1.6 1.6 0.00 0.41 0.41 95 1009.9
20260506232336 15 203 0.0 0.0 0.00 0.41 0.41 95 1009.9
20260506231833 15 203 0.0 0.0 0.00 0.41 0.41 95 1010.1
20260506231330 15 203 1.6 1.6 0.00 0.41 0.41 95 1010.1
20260506230828 15 203 0.0 1.6 0.00 0.41 0.41 95 1010.0
20260506230324 15 203 0.0 0.0 0.00 0.41 0.41 95 1010.2
20260506225820 15 203 1.6 1.6 0.00 0.41 0.41 95 1009.9
20260506225318 15 203 1.6 1.6 0.00 0.41 0.41 95 1010.1
20260506224815 15 203 0.0 0.0 0.00 0.41 0.41 95 1009.9
20260506224312 15 203 0.0 0.0 0.00 0.41 0.41 95 1010.0
20260506223808 15 203 0.0 0.0 0.00 0.41 0.41 95 1010.1
20260506223303 15 203 1.6 1.6 0.00 0.41 0.41 95 1010.0
20260506222801 15 203 1.6 1.6 0.00 0.41 0.41 94 1009.9
20260506222256 15 203 1.6 0.0 0.00 0.41 0.41 94 1010.0
20260506221754 15 203 0.0 0.0 0.00 0.41 0.41 95 1010.1
20260506221252 15 203 0.0 0.0 0.00 0.41 0.41 95 1010.1
20260506220750 15 203 1.6 1.6 0.00 0.41 0.41 95 1010.1
20260506220249 15 203 1.6 1.6 0.00 0.41 0.41 95 1010.2
20260506215747 15 203 1.6 1.6 0.00 0.41 0.41 95 1010.3
20260506215242 15 203 0.0 0.0 0.00 0.41 0.41 95 1010.2
20260506214739 15 203 0.0 1.6 0.00 0.41 0.41 95 1010.1
20260506214236 15 203 1.6 1.6 0.00 0.41 0.41 95 1010.2
20260506213735 15 203 0.0 0.0 0.00 0.41 0.41 95 1009.9
20260506213231 15 203 0.0 0.0 0.00 0.41 0.41 95 1010.3
20260506212728 16 203 1.6 1.6 0.00 0.41 0.41 95 1010.2
20260506212224 16 203 1.6 1.6 0.00 0.41 0.41 95 1010.4
20260506211719 16 203 1.6 1.6 0.00 0.41 0.41 95 1010.4
20260506211216 16 203 3.2 3.2 0.00 0.41 0.41 95 1010.3
20260506210713 16 203 3.2 3.2 0.00 0.41 0.41 95 1010.4
20260506210210 16 203 0.0 0.0 0.00 0.41 0.41 95 1010.4
20260506205708 16 203 1.6 1.6 0.00 0.41 0.41 95 1010.4
20260506205208 16 203 1.6 1.6 0.13 0.41 0.41 95 1010.5
20260506204705 16 203 0.0 1.6 0.13 0.41 0.41 95 1010.3
20260506204202 16 203 1.6 1.6 0.00 0.38 0.38 95 1010.5
20260506203700 16 203 1.6 1.6 0.00 0.38 0.38 95 1010.3
20260506203157 16 203 1.6 1.6 0.00 0.38 0.38 95 1010.5
20260506202655 16 203 1.6 1.6 0.18 0.38 0.38 95 1010.5
20260506202151 16 203 1.6 1.6 0.18 0.38 0.38 95 1010.4
20260506201648 16 203 1.6 1.6 0.30 0.38 0.38 95 1010.5
20260506201144 16 203 1.6 1.6 0.30 0.36 0.36 95 1010.5
20260506200641 16 203 1.6 1.6 0.18 0.33 0.33 95 1010.8
20260506200138 16 199 1.6 1.6 0.00 0.30 0.30 95 1010.9
20260506195635 16 199 0.0 0.0 0.18 0.30 0.30 94 1010.6
20260506195131 16 199 1.6 1.6 0.30 0.30 0.30 94 1010.9
20260506194629 16 199 0.0 0.0 0.13 0.28 0.28 94 1011.0
20260506194125 16 199 1.6 1.6 0.18 0.25 0.25 94 1011.1
20260506193623 16 199 1.6 1.6 0.18 0.25 0.25 94 1010.9
20260506193120 16 199 1.6 1.6 0.00 0.23 0.23 94 1011.1
20260506192616 16 199 1.6 1.6 0.00 0.23 0.23 94 1011.1
20260506192112 16 199 0.0 0.0 0.00 0.23 0.23 94 1011.3
20260506191609 16 199 0.0 0.0 0.00 0.23 0.23 94 1011.0
20260506191105 16 199 1.6 1.6 0.00 0.23 0.23 94 1011.0
20260506190603 16 199 0.0 0.0 0.00 0.23 0.23 94 1011.1
20260506190059 16 199 0.0 0.0 0.00 0.23 0.23 94 1011.0
20260506185556 16 199 0.0 0.0 0.13 0.23 0.23 94 1011.2
20260506185053 16 199 0.0 1.6 0.13 0.23 0.23 93 1011.7
20260506184550 16 199 1.6 1.6 0.00 0.20 0.20 93 1011.7
20260506184048 16 199 1.6 1.6 0.18 0.20 0.20 93 1011.5
20260506183543 16 199 1.6 1.6 0.18 0.20 0.20 93 1011.8
20260506183040 16 199 1.6 1.6 0.18 0.20 0.20 93 1012.3
20260506182537 16 199 0.0 0.0 0.00 0.18 0.18 93 1012.1
20260506182035 16 199 1.6 1.6 0.13 0.18 0.18 93 1012.0
20260506181533 16 199 0.0 0.0 0.13 0.18 0.18 93 1012.3
20260506181029 16 199 0.0 0.0 0.18 0.15 0.15 92 1012.2
20260506180525 16 199 0.0 0.0 0.18 0.15 0.15 91 1012.2
20260506180022 16 199 1.6 1.6 0.13 0.13 0.13 91 1012.4
20260506175519 16 199 0.0 0.0 0.13 0.13 0.13 90 1012.5
20260506175015 16 199 1.6 0.0 0.18 0.10 0.10 88 1012.5
20260506174514 16 199 1.6 3.2 0.18 0.10 0.10 88 1012.7
20260506174009 16 199 0.0 0.0 0.13 0.08 0.08 87 1012.5
20260506173508 16 199 0.0 0.0 0.30 0.08 0.08 85 1012.6
20260506173004 17 199 1.6 1.6 0.18 0.05 0.05 83 1012.6
20260506172502 17 199 1.6 1.6 0.00 0.03 0.03 82 1012.4
20260506171957 17 199 3.2 1.6 0.13 0.03 0.03 78 1012.3
20260506171455 18 199 3.2 3.2 0.13 0.03 0.03 76 1012.4
20260506170953 19 199 0.0 0.0 0.00 0.00 0.00 70 1012.0
20260506170449 20 199 1.6 1.6 0.00 0.00 0.00 65 1012.1
20260506165948 20 199 1.6 1.6 0.00 0.00 0.00 63 1012.1
20260506165447 20 199 1.6 1.6 0.00 0.00 0.00 62 1012.3
20260506164942 20 199 1.6 1.6 0.00 0.00 0.00 61 1012.1
20260506164439 20 199 1.6 1.6 0.00 0.00 0.00 62 1012.2
20260506163937 20 199 1.6 1.6 0.00 0.00 0.00 61 1012.2
20260506163432 20 199 1.6 1.6 0.00 0.00 0.00 62 1012.4
20260506162927 20 199 1.6 3.2 0.00 0.00 0.00 61 1012.3
20260506162425 20 199 1.6 3.2 0.00 0.00 0.00 61 1012.5
20260506161922 20 199 1.6 1.6 0.00 0.00 0.00 62 1012.4
20260506161420 20 199 3.2 3.2 0.00 0.00 0.00 63 1012.3
20260506160917 20 199 1.6 1.6 0.00 0.00 0.00 63 1012.3
20260506160414 20 199 0.0 1.6 0.00 0.00 0.00 65 1012.6
20260506155912 20 199 1.6 1.6 0.00 0.00 0.00 64 1012.8
20260506155408 20 199 0.0 0.0 0.00 0.00 0.00 66 1012.9
20260506153525 20 204 1.6 1.6 0.00 0.00 0.00 64 1013.4
20260506153022 20 204 3.2 3.2 0.00 0.00 0.00 63 1013.3
20260506152519 20 204 0.0 0.0 0.00 0.00 0.00 64 1013.4
20260506152017 19 204 0.0 0.0 0.00 0.00 0.00 64 1013.6
20260506151514 19 204 4.8 6.4 0.00 0.00 0.00 68 1013.4
20260506151012 18 204 0.0 0.0 0.00 0.00 0.00 73 1013.3
20260506150508 19 204 1.6 1.6 0.00 0.00 0.00 71 1013.6
20260506150005 19 204 0.0 0.0 0.00 0.00 0.00 72 1013.5
20260506145501 19 204 1.6 1.6 0.00 0.00 0.00 70 1013.3
20260506144959 19 204 0.0 0.0 0.00 0.00 0.00 70 1013.4
20260506144455 20 204 1.6 1.6 0.00 0.00 0.00 69 1013.4
20260506143953 20 204 1.6 1.6 0.00 0.00 0.00 67 1013.6
20260506143450 20 204 1.6 1.6 0.00 0.00 0.00 69 1013.3
20260506142949 20 204 1.6 1.6 0.00 0.00 0.00 68 1013.4
20260506142446 20 204 3.2 3.2 0.00 0.00 0.00 67 1013.3
20260506141944 20 204 1.6 1.6 0.00 0.00 0.00 68 1013.2
20260506141442 20 204 0.0 0.0 0.00 0.00 0.00 71 1013.2
20260506140940 19 204 1.6 1.6 0.00 0.00 0.00 69 1013.3
20260506140437 18 204 0.0 0.0 0.00 0.00 0.00 70 1013.4
20260506135933 18 204 1.6 1.6 0.00 0.00 0.00 73 1013.3
20260506135431 18 204 0.0 0.0 0.00 0.00 0.00 73 1013.4
20260506134927 17 204 0.0 0.0 0.00 0.00 0.00 72 1013.3
20260506134423 17 204 0.0 0.0 0.00 0.00 0.00 77 1013.5
20260506133920 17 204 1.6 1.6 0.00 0.00 0.00 78 1013.5
20260506133417 17 204 1.6 1.6 0.00 0.00 0.00 77 1013.8
20260506132914 17 204 0.0 1.6 0.00 0.00 0.00 78 1013.6
20260506132411 16 204 0.0 0.0 0.00 0.00 0.00 77 1013.8
20260506131908 16 204 0.0 0.0 0.00 0.00 0.00 80 1013.8
20260506131404 16 204 0.0 0.0 0.00 0.00 0.00 79 1013.8
20260506130902 16 204 0.0 0.0 0.00 0.00 0.00 81 1014.2
20260506130358 16 204 0.0 0.0 0.00 0.00 0.00 82 1013.9
20260506125856 16 204 0.0 0.0 0.00 0.00 0.00 81 1013.8
20260506125355 16 204 0.0 0.0 0.00 0.00 0.00 81 1014.2
20260506124852 16 204 1.6 1.6 0.00 0.00 0.00 83 1014.0
20260506124349 15 204 0.0 0.0 0.00 0.00 0.00 82 1014.1
20260506123847 15 204 0.0 0.0 0.00 0.00 0.00 83 1013.9
20260506123345 15 204 0.0 0.0 0.00 0.00 0.00 84 1014.0
20260506122842 15 204 0.0 0.0 0.00 0.00 0.00 83 1014.1
20260506122339 15 204 0.0 0.0 0.00 0.00 0.00 84 1014.0
20260506121837 15 204 1.6 1.6 0.00 0.00 0.00 84 1013.9
20260506121334 15 204 0.0 0.0 0.00 0.00 0.00 83 1014.0
20260506120831 15 204 0.0 0.0 0.00 0.00 0.00 82 1014.1
20260506120329 15 204 1.6 1.6 0.00 0.00 0.00 85 1014.1
20260506115826 15 204 1.6 1.6 0.00 0.00 0.00 84 1014.2
20260506115324 14 204 0.0 0.0 0.00 0.00 0.00 86 1014.4
20260506114821 14 204 0.0 0.0 0.00 0.00 0.00 87 1014.4
20260506114319 13 204 0.0 0.0 0.00 0.00 0.00 88 1014.2
20260506113817 13 204 0.0 0.0 0.00 0.00 0.00 88 1014.4
20260506113315 13 204 0.0 0.0 0.00 0.00 0.00 87 1014.2
20260506112811 13 204 0.0 0.0 0.00 0.00 0.00 86 1014.2
20260506112308 13 204 0.0 0.0 0.00 0.00 0.00 87 1014.3
20260506111806 13 204 0.0 0.0 0.00 0.00 0.00 87 1014.4
20260506111304 13 204 0.0 0.0 0.00 0.00 0.00 87 1014.3
20260506110801 12 204 0.0 0.0 0.00 0.00 0.00 88 1014.3
20260506110258 12 204 0.0 0.0 0.00 0.00 0.00 88 1014.3
20260506105754 12 204 0.0 0.0 0.00 0.00 0.00 88 1014.5
20260506105251 12 204 0.0 0.0 0.00 0.00 0.00 88 1014.4
20260506104749 12 204 0.0 0.0 0.00 0.00 0.00 88 1014.4
20260506104247 12 204 0.0 0.0 0.00 0.00 0.00 89 1014.6
20260506103744 12 204 0.0 0.0 0.00 0.00 0.00 88 1014.7
20260506103241 12 204 0.0 0.0 0.00 0.00 0.00 89 1014.3
20260506102738 12 204 0.0 0.0 0.00 0.00 0.00 89 1014.5
20260506102237 12 204 0.0 0.0 0.00 0.00 0.00 89 1014.5
20260506101733 12 204 0.0 0.0 0.00 0.00 0.00 89 1014.2
20260506101230 12 204 0.0 0.0 0.00 0.00 0.00 89 1014.2
20260506100728 12 204 0.0 0.0 0.00 0.00 0.00 89 1014.6
20260506100226 12 204 0.0 0.0 0.00 0.00 0.00 89 1014.2
20260506095724 12 204 0.0 0.0 0.00 0.00 0.00 89 1014.4
20260506095220 12 204 0.0 0.0 0.00 0.00 0.00 89 1014.1
20260506094717 12 204 0.0 0.0 0.00 0.00 0.00 89 1014.3
20260506094215 12 204 0.0 0.0 0.00 0.00 0.00 89 1014.2
20260506093714 12 204 0.0 0.0 0.00 0.00 0.00 89 1014.5
20260506093210 12 204 0.0 0.0 0.00 0.00 0.00 89 1014.4
20260506092708 12 204 0.0 0.0 0.00 0.00 0.00 89 1014.3
20260506092205 12 204 0.0 0.0 0.00 0.00 0.00 89 1014.4
20260506091703 12 204 0.0 0.0 0.00 0.00 0.00 88 1014.2
20260506091200 12 204 0.0 0.0 0.00 0.00 0.00 88 1014.1
20260506090658 12 204 0.0 0.0 0.00 0.00 0.00 88 1014.4
20260506090154 12 204 0.0 0.0 0.00 0.00 0.00 88 1014.3
20260506085651 12 204 0.0 0.0 0.00 0.00 0.00 88 1014.3
20260506085147 12 204 0.0 0.0 0.00 0.00 0.00 88 1014.3
20260506084644 12 204 0.0 0.0 0.00 0.00 0.00 88 1014.4
20260506084141 12 204 0.0 0.0 0.00 0.00 0.00 88 1014.1
20260506083638 12 204 0.0 0.0 0.00 0.00 0.00 88 1014.4
20260506083136 12 204 0.0 0.0 0.00 0.00 0.00 87 1014.2
20260506082632 12 204 0.0 0.0 0.00 0.00 0.00 87 1014.4
20260506082128 12 204 0.0 0.0 0.00 0.00 0.00 87 1014.4
20260506081626 12 204 0.0 0.0 0.00 0.00 0.00 87 1014.4
20260506081123 12 204 0.0 0.0 0.00 0.00 0.00 87 1014.2
20260506080621 12 204 0.0 0.0 0.00 0.00 0.00 87 1014.4
20260506080118 12 204 0.0 0.0 0.00 0.00 0.00 87 1014.0
20260506073101 13 204 0.0 0.0 0.00 0.00 0.00 86 1014.2
20260506072558 13 204 0.0 0.0 0.00 0.00 0.00 85 1014.3
20260506072056 13 204 0.0 0.0 0.00 0.00 0.00 85 1014.3
20260506071553 13 204 0.0 0.0 0.00 0.00 0.00 85 1014.2
20260506071051 13 204 0.0 0.0 0.00 0.00 0.00 85 1014.3
20260506070548 13 204 0.0 0.0 0.00 0.00 0.00 85 1014.2
20260506062022 14 204 0.0 0.0 0.00 0.00 0.00 84 1013.8
20260506061518 14 204 0.0 0.0 0.00 0.00 0.00 83 1014.1
20260506061016 14 204 0.0 0.0 0.00 0.00 0.00 82 1013.8
20260506060514 14 204 0.0 0.0 0.00 0.00 0.00 82 1013.8
20260506050943 15 204 0.0 0.0 0.00 0.00 0.00 81 1014.1
20260506050440 15 204 0.0 0.0 0.00 0.00 0.00 80 1013.9
20260506044931 15 204 0.0 0.0 0.00 0.00 0.00 77 1014.2
20260506044429 16 204 1.6 1.6 0.00 0.00 0.00 77 1014.1
20260506043925 16 204 0.0 0.0 0.00 0.00 0.00 74 1014.1
20260506043423 16 204 0.0 1.6 0.00 0.00 0.00 74 1014.1
20260506042921 16 204 0.0 0.0 0.00 0.00 0.00 71 1014.0
20260506042420 16 204 0.0 0.0 0.00 0.00 0.00 71 1014.2
20260506041918 16 204 0.0 0.0 0.00 0.00 0.00 72 1014.2
20260506041415 16 204 0.0 0.0 0.00 0.00 0.00 75 1014.3
20260506040912 16 204 1.6 1.6 0.00 0.00 0.00 73 1014.2
20260506040409 16 204 1.6 1.6 0.00 0.00 0.00 74 1014.3
20260506035905 16 204 1.6 1.6 0.00 0.03 0.03 73 1014.0
20260506035403 16 204 1.6 1.6 0.00 0.03 0.03 74 1014.2
20260506034900 16 204 3.2 3.2 0.00 0.03 0.03 79 1014.0
20260506034357 16 204 1.6 1.6 0.00 0.03 0.03 80 1014.0
20260506033854 16 204 1.6 1.6 0.00 0.03 0.03 80 1013.9
20260506033351 15 204 0.0 0.0 0.00 0.03 0.03 80 1013.8
20260506032848 15 204 0.0 0.0 0.00 0.03 0.03 85 1014.0
20260506032344 15 204 0.0 0.0 0.00 0.03 0.03 90 1014.1
20260506031841 15 204 0.0 0.0 0.00 0.03 0.03 91 1014.1
20260506031339 15 204 0.0 0.0 0.00 0.03 0.03 91 1014.1
20260506030836 15 204 0.0 0.0 0.00 0.03 0.03 91 1014.1
20260506030335 14 204 0.0 0.0 0.00 0.03 0.03 91 1014.1
20260506025831 15 204 0.0 0.0 0.00 0.03 0.03 91 1014.0
20260506025327 15 204 0.0 0.0 0.00 0.03 0.03 91 1013.9
20260506024824 15 204 0.0 0.0 0.00 0.03 0.03 91 1014.2
20260506024321 15 204 0.0 0.0 0.00 0.03 0.03 91 1013.9
20260506023817 15 204 0.0 0.0 0.00 0.03 0.03 91 1014.0
20260506023314 15 204 0.0 0.0 0.00 0.03 0.03 90 1013.9
20260506022811 15 204 0.0 0.0 0.00 0.03 0.03 90 1013.8
20260506022309 15 204 0.0 0.0 0.00 0.03 0.03 90 1013.8
20260506021807 15 204 0.0 0.0 0.00 0.03 0.03 90 1014.0